Albert Lea, MN

3:03 PM CST on February 18, 2018 (GMT -0600)
Albert Lea Municipal

Weather History for KAEL - November, 2013

Change the Weather History Date:

Thursday, November 7, 2013

  Actual Average Record
Temperature  
Mean Temperature 34 °F -  
Max Temperature 39 °F 44 °F 75 °F (2001)
Min Temperature 28 °F 28 °F 0 °F (1998)
Degree Days  
Heating Degree Days 32    
Moisture  
Dew Point 28 °F    
Average Humidity 84    
Maximum Humidity 100    
Minimum Humidity 65    
Precipitation  
Precipitation 0.00 in - - ()
Sea Level Pressure  
Sea Level Pressure 30.21 in    
Wind  
Wind Speed 7 mph (West)    
Max Wind Speed 14 mph    
Max Gust Speed 24 mph    
Visibility 10 miles    
Events      
Averages and records for this station are not official NWS values.
T = Trace of Precipitation, MM = Missing Value Source: NWS Daily Summary

Daily Weather History Graph

Daily Weather History Graph

Search for Another Location

Airport or City:

Trip Planner

Search our weather history database for the weather conditions in past years. The results will help you decide how hot, cold, wet, or windy it might be!

Date:

Astronomy

Nov. 07, 2013 Rise Set
Actual Time 6:57 AM CST 4:56 PM CST
Civil Twilight 6:27 AM CST 5:26 PM CST
Nautical Twilight 5:52 AM CST 6:00 PM CST
Astronomical Twilight 5:19 AM CST 6:34 PM CST
Moon 11:08 AM CST (11/7) 9:07 PM CST (11/7)
Length of Visible Light 10h 59m
Length of Day
9h 58m
Waxing Crescent, 23% of the Moon is Illuminated
Nov 7
Waxing Crescent
Nov 9
First Quarter
Nov 17
Full
Nov 25
Last Quarter
Dec 2
New

Hourly Weather History & Observations

Time (CST) Temp. Windchill Dew Point Humidity Pressure Visibility Wind Dir Wind Speed Gust Speed Precip Events Conditions
12:14 AM 32.0 °F 24.8 °F 26.6 °F 80% 30.19 in 10.0 mi West 8.1 mph - N/A   Overcast
12:33 AM 32.0 °F 25.6 °F 28.4 °F 87% 30.19 in 10.0 mi West 6.9 mph - N/A   Overcast
12:54 AM 32.0 °F 24.2 °F 28.4 °F 87% 30.19 in 10.0 mi West 9.2 mph - N/A   Overcast
1:13 AM 32.0 °F 25.6 °F 28.4 °F 87% 30.19 in 10.0 mi West 6.9 mph - N/A   Overcast
1:34 AM 30.2 °F 21.3 °F 28.4 °F 93% 30.18 in 10.0 mi West 10.4 mph - N/A   Overcast
1:54 AM 30.2 °F 25.4 °F 28.4 °F 93% 30.17 in 10.0 mi West 4.6 mph - N/A   Overcast
2:13 AM 30.2 °F 23.4 °F 28.4 °F 93% 30.17 in 10.0 mi WNW 6.9 mph - N/A   Overcast
2:34 AM 30.2 °F 22.6 °F 28.4 °F 93% 30.17 in 10.0 mi West 8.1 mph - N/A   Overcast
2:54 AM 30.2 °F 21.9 °F 28.4 °F 93% 30.17 in 10.0 mi West 9.2 mph - N/A   Overcast
3:13 AM 30.2 °F 21.9 °F 28.4 °F 93% 30.17 in 10.0 mi WNW 9.2 mph - N/A   Overcast
3:34 AM 30.2 °F 25.4 °F 28.4 °F 93% 30.17 in 10.0 mi West 4.6 mph - N/A   Overcast
3:54 AM 30.2 °F - 28.4 °F 93% 30.17 in 10.0 mi Calm Calm - N/A   Overcast
4:13 AM 30.2 °F - 28.4 °F 93% 30.17 in 10.0 mi Calm Calm - N/A   Overcast
4:34 AM 30.2 °F 25.4 °F 28.4 °F 93% 30.17 in 10.0 mi West 4.6 mph - N/A   Overcast
4:54 AM 30.2 °F 24.3 °F 28.4 °F 93% 30.17 in 10.0 mi West 5.8 mph - N/A   Overcast
5:13 AM 30.2 °F 25.4 °F 28.4 °F 93% 30.18 in 10.0 mi West 4.6 mph - N/A   Overcast
5:34 AM 30.2 °F 25.4 °F 30.2 °F 100% 30.18 in 10.0 mi West 4.6 mph - N/A   Overcast
5:54 AM 32.0 °F 26.4 °F 30.2 °F 93% 30.19 in 10.0 mi West 5.8 mph - N/A   Overcast
6:13 AM 32.0 °F 24.8 °F 30.2 °F 93% 30.19 in 10.0 mi WNW 8.1 mph - N/A   Overcast
6:34 AM 32.0 °F 26.4 °F 30.2 °F 93% 30.20 in 10.0 mi WSW 5.8 mph - N/A   Overcast
6:54 AM 32.0 °F 25.6 °F 30.2 °F 93% 30.20 in 10.0 mi WNW 6.9 mph - N/A   Overcast
7:14 AM 30.2 °F 23.4 °F 30.2 °F 100% 30.20 in 10.0 mi WNW 6.9 mph - N/A   Overcast
7:34 AM 30.2 °F 24.3 °F 30.2 °F 100% 30.21 in 10.0 mi WNW 5.8 mph - N/A   Overcast
7:53 AM 30.2 °F 24.3 °F 28.4 °F 93% 30.22 in 10.0 mi West 5.8 mph - N/A   Overcast
8:14 AM 30.2 °F 25.4 °F 28.4 °F 93% 30.23 in 10.0 mi West 4.6 mph - N/A   Overcast
8:34 AM 30.2 °F 26.7 °F 28.4 °F 93% 30.23 in 10.0 mi West 3.5 mph - N/A   Overcast
8:53 AM 32.0 °F 27.5 °F 28.4 °F 87% 30.23 in 10.0 mi West 4.6 mph - N/A   Scattered Clouds
9:14 AM 33.8 °F 26.4 °F 28.4 °F 81% 30.24 in 10.0 mi West 9.2 mph - N/A   Scattered Clouds
9:34 AM 33.8 °F 28.6 °F 28.4 °F 81% 30.24 in 10.0 mi West 5.8 mph - N/A   Clear
9:53 AM 33.8 °F 27.0 °F 30.2 °F 87% 30.24 in 10.0 mi West 8.1 mph - N/A   Mostly Cloudy
10:14 AM 35.6 °F 29.9 °F 30.2 °F 81% 30.24 in 10.0 mi West 6.9 mph - N/A   Scattered Clouds
10:34 AM 37.4 °F 30.8 °F 30.2 °F 75% 30.24 in 10.0 mi WSW 9.2 mph - N/A   Clear
10:53 AM 35.6 °F 29.2 °F 30.2 °F 81% 30.24 in 10.0 mi West 8.1 mph - N/A   Clear
11:14 AM 37.4 °F 29.8 °F 30.2 °F 75% 30.24 in 10.0 mi West 11.5 mph - N/A   Clear
11:34 AM 37.4 °F 29.8 °F 30.2 °F 75% 30.24 in 10.0 mi West 11.5 mph 16.1 mph N/A   Scattered Clouds
11:54 AM 35.6 °F 29.2 °F 30.2 °F 81% 30.25 in 10.0 mi West 8.1 mph 19.6 mph N/A   Mostly Cloudy
12:14 PM 35.6 °F 26.6 °F 30.2 °F 81% 30.24 in 10.0 mi West 13.8 mph 19.6 mph N/A   Mostly Cloudy
12:34 PM 39.2 °F 33.0 °F 30.2 °F 70% 30.23 in 10.0 mi West 9.2 mph 18.4 mph N/A   Scattered Clouds
12:54 PM 39.2 °F 33.0 °F 30.2 °F 70% 30.22 in 10.0 mi WNW 9.2 mph 16.1 mph N/A   Clear
1:14 PM 39.2 °F 31.2 °F 28.4 °F 65% 30.22 in 10.0 mi West 13.8 mph 19.6 mph N/A   Clear
1:34 PM 39.2 °F 32.0 °F 28.4 °F 65% 30.22 in 10.0 mi WNW 11.5 mph 24.2 mph N/A   Clear
1:54 PM 39.2 °F 32.0 °F 28.4 °F 65% 30.22 in 10.0 mi West 11.5 mph 20.7 mph N/A   Clear
2:14 PM 39.2 °F 31.6 °F 28.4 °F 65% 30.22 in 10.0 mi West 12.7 mph 19.6 mph N/A   Clear
2:33 PM 39.2 °F 32.5 °F 30.2 °F 70% 30.22 in 10.0 mi WNW 10.4 mph 19.6 mph N/A   Clear
2:54 PM 39.2 °F 31.6 °F 28.4 °F 65% 30.22 in 10.0 mi WNW 12.7 mph 19.6 mph N/A   Scattered Clouds
3:14 PM 39.2 °F 33.0 °F 28.4 °F 65% 30.22 in 10.0 mi West 9.2 mph 17.3 mph N/A   Scattered Clouds
3:34 PM 37.4 °F 30.3 °F 28.4 °F 70% 30.22 in 10.0 mi WNW 10.4 mph 18.4 mph N/A   Clear
3:54 PM 37.4 °F 31.4 °F 28.4 °F 70% 30.22 in 10.0 mi West 8.1 mph - N/A   Clear
4:14 PM 37.4 °F 30.8 °F 28.4 °F 70% 30.22 in 10.0 mi West 9.2 mph - N/A   Clear
4:34 PM 35.6 °F 28.6 °F 28.4 °F 75% 30.22 in 10.0 mi West 9.2 mph - N/A   Clear
4:47 PM 35.6 °F 29.9 °F 26.6 °F 70% 30.22 in 10.0 mi West 6.9 mph - N/A   Clear
5:01 PM 35.6 °F 30.7 °F 26.6 °F 70% 30.22 in 10.0 mi West 5.8 mph - N/A   Clear
5:21 PM 33.8 °F 28.6 °F 26.6 °F 75% 30.22 in 10.0 mi West 5.8 mph - N/A   Clear
5:41 PM 32.0 °F 27.5 °F 26.6 °F 80% 30.22 in 10.0 mi West 4.6 mph - N/A   Clear
6:01 PM 32.0 °F 28.7 °F 26.6 °F 80% 30.22 in 10.0 mi West 3.5 mph - N/A   Clear
6:21 PM 32.0 °F - 26.6 °F 80% 30.22 in 10.0 mi WSW 2.3 mph - N/A   Clear
6:41 PM 32.0 °F 27.5 °F 26.6 °F 80% 30.22 in 10.0 mi WSW 4.6 mph - N/A   Clear
7:13 PM 32.0 °F 27.5 °F 26.6 °F 80% 30.22 in 10.0 mi WSW 4.6 mph - N/A   Clear
7:14 PM 32.0 °F 27.5 °F 26.6 °F 80% 30.22 in 10.0 mi WSW 4.6 mph - N/A   Clear
7:34 PM 32.0 °F 26.4 °F 26.6 °F 80% 30.22 in 10.0 mi WSW 5.8 mph - N/A   Clear
7:54 PM 32.0 °F 26.4 °F 26.6 °F 80% 30.21 in 10.0 mi WSW 5.8 mph - N/A   Clear
8:13 PM 32.0 °F 24.8 °F 26.6 °F 80% 30.22 in 10.0 mi WSW 8.1 mph - N/A   Clear
8:34 PM 30.2 °F - 26.6 °F 86% 30.22 in 10.0 mi Calm Calm - N/A   Scattered Clouds
8:53 PM 30.2 °F 23.4 °F 26.6 °F 86% 30.22 in 10.0 mi WSW 6.9 mph - N/A   Scattered Clouds
9:14 PM 30.2 °F 23.4 °F 26.6 °F 86% 30.22 in 10.0 mi WSW 6.9 mph - N/A   Clear
9:34 PM 30.2 °F 24.3 °F 26.6 °F 86% 30.22 in 10.0 mi West 5.8 mph - N/A   Clear
9:53 PM 30.2 °F 25.4 °F 26.6 °F 86% 30.22 in 10.0 mi West 4.6 mph - N/A   Scattered Clouds
10:14 PM 28.4 °F 24.6 °F 26.6 °F 93% 30.22 in 10.0 mi West 3.5 mph - N/A   Scattered Clouds
10:34 PM 28.4 °F 23.3 °F 26.6 °F 93% 30.22 in 10.0 mi WSW 4.6 mph - N/A   Clear
10:53 PM 28.4 °F 24.6 °F 26.6 °F 93% 30.22 in 10.0 mi WSW 3.5 mph - N/A   Clear
11:14 PM 28.4 °F - 26.6 °F 93% 30.22 in 10.0 mi Calm Calm - N/A   Scattered Clouds
11:34 PM 28.4 °F 24.6 °F 26.6 °F 93% 30.21 in 10.0 mi SW 3.5 mph - N/A   Scattered Clouds
11:53 PM 28.4 °F 23.3 °F 26.6 °F 93% 30.21 in 10.0 mi SW 4.6 mph - N/A   Scattered Clouds